Pittsfield, MA

4:16 AM EDT on May 21, 2018 (GMT -0400)
Pittsfield Municipal

Weather History for KPSF - October, 2012

Change the Weather History Date:

Friday, October 26, 2012

  Actual Average Record
Temperature  
Mean Temperature 57 °F 44 °F  
Max Temperature 61 °F 55 °F 79 °F (1963)
Min Temperature 52 °F 34 °F 20 °F (1933)
Degree Days  
Heating Degree Days 8 21  
Month to date heating degree days 356 436  
Since 1 July heating degree days 582 728  
Cooling Degree Days 0 0  
Month to date cooling degree days 0 0  
Year to date cooling degree days 465 289  
Growing Degree Days 6 (Base 50)    
Moisture  
Dew Point 51 °F    
Average Humidity 84    
Maximum Humidity 96    
Minimum Humidity 72    
Precipitation  
Precipitation 0.00 in 0.13 in 1.15 in (1943)
Month to date precipitation 3.13 4.20  
Year to date precipitation 30.55 37.94  
Sea Level Pressure  
Sea Level Pressure 30.15 in    
Wind  
Wind Speed 4 mph (SSW)    
Max Wind Speed 12 mph    
Max Gust Speed 14 mph    
Visibility 8 miles    
Events      
T = Trace of Precipitation, MM = Missing Value Source: NWS Daily Summary

Daily Weather History Graph

Daily Weather History Graph

Search for Another Location

Airport or City:

Astronomy

Oct. 26, 2012 Rise Set
Actual Time 7:19 AM EDT 5:53 PM EDT
Civil Twilight 6:50 AM EDT 6:22 PM EDT
Nautical Twilight 6:17 AM EDT 6:55 PM EDT
Astronomical Twilight 5:45 AM EDT 7:28 PM EDT
Moon 4:10 PM EDT (10/26) 4:10 AM EDT (10/26)
Length of Visible Light 11h 31m
Length of Day
10h 34m
Waxing Gibbous, 91% of the Moon is Illuminated
Oct 26
Waxing Gibbous
Oct 29
Full
Nov 6
Last Quarter
Nov 13
New
Nov 20
First Quarter

Hourly Weather History & Observations

Time (EDT) Temp. Dew Point Humidity Pressure Visibility Wind Dir Wind Speed Gust Speed Precip Events Conditions
12:37 AM 53.6 °F 50.0 °F 88% 30.22 in 8.0 mi Calm Calm - N/A   Overcast
12:54 AM 53.1 °F 50.0 °F 89% 30.19 in 6.0 mi Calm Calm - N/A   Overcast
2:54 AM 53.1 °F 50.0 °F 89% 30.18 in 8.0 mi South 3.5 mph - N/A   Overcast
3:54 AM 52.0 °F 50.0 °F 93% 30.18 in 7.0 mi South 6.9 mph - N/A   Overcast
4:54 AM 52.0 °F 50.0 °F 93% 30.17 in 9.0 mi South 3.5 mph - N/A   Overcast
5:54 AM 52.0 °F 50.0 °F 93% 30.17 in 8.0 mi Calm Calm - N/A   Overcast
6:54 AM 53.1 °F 50.0 °F 89% 30.17 in 9.0 mi South 3.5 mph - N/A   Overcast
7:54 AM 53.1 °F 51.1 °F 93% 30.19 in 7.0 mi Calm Calm - N/A   Overcast
8:54 AM 53.1 °F 51.1 °F 93% 30.19 in 7.0 mi Calm Calm - N/A   Overcast
9:54 AM 54.0 °F 51.1 °F 90% 30.19 in 8.0 mi SW 8.1 mph - N/A   Overcast
10:24 AM 55.4 °F 51.8 °F 88% 30.21 in 9.0 mi SW 8.1 mph - N/A   Overcast
10:54 AM 55.0 °F 51.1 °F 86% 30.18 in 10.0 mi SW 6.9 mph - N/A   Overcast
11:54 AM 55.9 °F 51.1 °F 84% 30.17 in 10.0 mi Calm Calm - N/A   Overcast
12:54 PM 57.0 °F 52.0 °F 83% 30.15 in 10.0 mi South 5.8 mph - N/A   Overcast
1:32 PM 59.0 °F 51.8 °F 77% 30.16 in 10.0 mi SE 4.6 mph - N/A   Scattered Clouds
1:54 PM 60.1 °F 52.0 °F 75% 30.12 in 10.0 mi South 5.8 mph - N/A   Partly Cloudy
2:54 PM 61.0 °F 52.0 °F 72% 30.10 in 10.0 mi SSW 5.8 mph - N/A   Clear
3:18 PM 60.8 °F 51.8 °F 72% 30.15 in 9.0 mi WSW 8.1 mph - N/A   Mostly Cloudy
3:54 PM 59.0 °F 52.0 °F 78% 30.10 in 9.0 mi South 10.4 mph - N/A   Mostly Cloudy
4:22 PM 57.2 °F 51.8 °F 82% 30.13 in 8.0 mi SSW 8.1 mph - N/A   Scattered Clouds
4:54 PM 57.0 °F 52.0 °F 83% 30.10 in 8.0 mi SW 4.6 mph - N/A   Clear
5:51 PM 57.2 °F 51.8 °F 82% 30.13 in 8.0 mi Calm Calm - N/A   Mostly Cloudy
5:54 PM 57.0 °F 52.0 °F 83% 30.09 in 8.0 mi Variable 4.6 mph - N/A   Mostly Cloudy
6:54 PM 57.0 °F 52.0 °F 83% 30.10 in 9.0 mi South 5.8 mph - N/A   Overcast
7:03 PM 57.2 °F 51.8 °F 82% 30.13 in 9.0 mi South 4.6 mph - N/A   Overcast
7:54 PM 55.9 °F 51.1 °F 84% 30.10 in 9.0 mi SW 6.9 mph - N/A   Overcast
8:54 PM 55.9 °F 52.0 °F 87% 30.11 in 8.0 mi SSW 4.6 mph - N/A   Overcast
9:54 PM 55.9 °F 52.0 °F 87% 30.11 in 8.0 mi Calm Calm - N/A   Overcast
10:54 PM 55.9 °F 52.0 °F 87% 30.11 in 8.0 mi Calm Calm - N/A   Overcast
11:54 PM 55.9 °F 52.0 °F 87% 30.10 in 7.0 mi Calm Calm - N/A   Overcast